EA3E-1 Weather Reports


time (UTC)temp
F
wind
direction
speed
knots
gust
knots
rain 1hr
in
rain 24hr
in
rain mn
in
humidity
%
barometer
mb
20260902110206 88 1 3.5 7.0 0.00 0.00 0.00 44 1019.5
20260902105306 88 1 3.5 7.0 0.00 0.00 0.00 45 1019.5
20260902104406 88 1 3.5 7.8 0.00 0.00 0.00 45 1019.6
20260902103506 87 1 2.6 7.8 0.00 0.00 0.00 45 1019.7
20260902102606 87 1 2.6 6.1 0.00 0.00 0.00 44 1019.7
20260902101705 87 1 2.6 5.2 0.00 0.00 0.00 44 1019.8
20260902100806 87 1 1.7 5.2 0.00 0.00 0.00 44 1019.8
20260902095905 87 1 0.9 5.2 0.00 0.00 0.00 44 1019.8
20260902095005 86 1 0.9 4.3 0.00 0.00 0.00 44 1019.8
20260902094105 86 1 0.9 4.3 0.00 0.00 0.00 45 1019.9
20260902093205 85 1 1.7 4.3 0.00 0.00 0.00 46 1020.0
20260902092306 85 1 1.7 6.1 0.00 0.00 0.00 46 1019.9
20260902091405 85 2 1.7 3.5 0.00 0.00 0.00 48 1019.9
20260902090505 84 1 2.6 4.3 0.00 0.00 0.00 47 1019.8
20260902085605 84 1 1.7 3.5 0.00 0.00 0.00 48 1019.8
20260902084705 83 1 1.7 3.5 0.00 0.00 0.00 49 1019.7
20260902083805 83 1 1.7 3.5 0.00 0.00 0.00 51 1019.6
20260902082005 82 1 0.9 2.6 0.00 0.00 0.00 53 1019.6
20260902081105 81 1 0.9 2.6 0.00 0.00 0.00 54 1019.5
20260902080205 80 1 0.9 2.6 0.00 0.00 0.00 58 1019.5
20260902075306 79 1 0.9 1.7 0.00 0.00 0.00 60 1019.5
20260902074405 78 1 0.9 2.6 0.00 0.00 0.00 62 1019.4
20260902073505 77 1 0.9 3.5 0.00 0.00 0.00 63 1019.4
20260902072605 76 1 0.9 2.6 0.00 0.00 0.00 64 1019.4
20260902071705 75 1 0.9 2.6 0.00 0.00 0.00 65 1019.3
20260902070805 74 1 0.0 2.6 0.00 0.00 0.00 67 1019.2
20260902065905 73 1 0.9 1.7 0.00 0.00 0.00 69 1019.2
20260902065005 72 1 0.0 2.6 0.00 0.00 0.00 70 1019.2
20260902064105 71 0 0.0 0.0 0.00 0.00 0.00 71 1019.2
20260902063205 71 0 0.0 0.0 0.00 0.00 0.00 73 1019.1
20260902060505 68 1 0.9 2.6 0.00 0.00 0.00 75 1019.0
20260902055605 68 1 0.0 3.5 0.00 0.00 0.00 75 1018.9
20260902054705 68 0 0.0 0.0 0.00 0.00 0.00 76 1018.8
20260902052905 68 0 0.0 0.0 0.00 0.00 0.00 76 1018.7
20260902051105 68 0 0.0 0.0 0.00 0.00 0.00 76 1018.6
20260902050205 68 0 0.0 0.0 0.00 0.00 0.00 76 1018.5
20260902045306 69 0 0.0 0.0 0.00 0.00 0.00 76 1018.4
20260902044404 69 0 0.0 0.0 0.00 0.00 0.00 76 1018.4
20260902043505 69 0 0.0 0.0 0.00 0.00 0.00 76 1018.4
20260902041705 69 0 0.0 0.0 0.00 0.00 0.00 76 1018.3
20260902040805 69 0 0.0 0.0 0.00 0.00 0.00 76 1018.4
20260902035905 69 0 0.0 0.0 0.00 0.00 0.00 76 1018.4
20260902035004 69 0 0.0 0.0 0.00 0.00 0.00 76 1018.4
20260902033204 69 0 0.0 0.0 0.00 0.00 0.00 76 1018.4
20260902032306 69 0 0.0 0.0 0.00 0.00 0.00 76 1018.4
20260902025604 69 0 0.0 0.0 0.00 0.00 0.00 75 1018.5
20260902024704 69 0 0.0 0.0 0.00 0.00 0.00 75 1018.5
20260902023804 69 1 0.0 0.9 0.00 0.00 0.00 75 1018.6
20260902022904 70 1 0.9 1.7 0.00 0.00 0.00 75 1018.5
20260902022004 69 1 0.0 2.6 0.00 0.00 0.00 76 1018.5
20260902021104 69 0 0.0 0.0 0.00 0.00 0.00 76 1018.6
20260902020204 69 0 0.0 0.0 0.00 0.00 0.00 75 1018.6
20260902015306 69 1 0.0 0.9 0.00 0.00 0.00 75 1018.6
20260902014404 70 1 0.0 1.7 0.00 0.00 0.00 75 1018.5
20260902011704 70 1 0.9 0.9 0.00 0.00 0.00 75 1018.5
20260902010804 70 1 1.7 2.6 0.00 0.00 0.00 75 1018.6
20260902005904 70 1 1.7 3.5 0.00 0.00 0.00 75 1018.6
20260902005004 70 1 0.0 3.5 0.00 0.00 0.00 75 1018.6
20260902004104 69 0 0.0 0.0 0.00 0.00 0.00 75 1018.7
20260902003204 69 1 0.9 1.7 0.00 0.00 0.00 76 1018.7
20260902001404 69 1 2.6 4.3 0.00 0.00 0.00 76 1018.7
20260902000504 69 1 4.3 5.2 0.00 0.00 0.00 76 1018.5
20260901235604 69 1 4.3 6.1 0.00 0.00 0.00 76 1018.5
20260901232904 72 1 2.6 3.5 0.00 0.00 0.00 74 1018.5
20260901232004 72 1 2.6 5.2 0.00 0.00 0.00 74 1018.3
20260901231104 71 1 3.5 6.1 0.00 0.00 0.00 74 1018.4
20260901225306 71 1 2.6 5.2 0.00 0.00 0.00 74 1018.2
20260901224404 71 1 3.5 5.2 0.00 0.00 0.00 74 1018.1
20260901223504 72 1 3.5 5.2 0.00 0.00 0.00 74 1018.1
20260901222604 73 1 2.6 5.2 0.00 0.00 0.00 73 1018.2
20260901221704 74 1 0.9 3.5 0.00 0.00 0.00 72 1018.1
20260901220804 74 1 0.0 2.6 0.00 0.00 0.00 73 1018.0
20260901215904 74 1 0.0 0.9 0.00 0.00 0.00 73 1017.9
20260901215004 75 1 0.0 1.7 0.00 0.00 0.00 72 1017.9
20260901214103 75 1 0.0 2.6 0.00 0.00 0.00 72 1017.8
20260901213203 75 0 0.0 0.0 0.00 0.00 0.00 71 1017.8
20260901212306 75 1 0.9 0.9 0.00 0.00 0.00 72 1017.6
20260901211404 75 1 0.9 2.6 0.00 0.00 0.00 71 1017.6
20260901205604 76 1 0.0 1.7 0.00 0.00 0.00 71 1017.8
20260901203803 76 0 0.0 0.0 0.00 0.00 0.00 72 1017.7
20260901202903 76 0 0.0 0.0 0.00 0.00 0.00 72 1017.8
20260901202003 76 0 0.0 0.0 0.00 0.00 0.00 72 1017.8
20260901200203 77 1 0.0 2.6 0.00 0.00 0.00 71 1017.7
20260901195305 76 1 1.7 2.6 0.00 0.00 0.00 71 1017.5
20260901194403 77 1 2.6 4.3 0.00 0.00 0.00 71 1017.3
20260901193503 77 1 2.6 4.3 0.00 0.00 0.00 71 1017.2
20260901191703 78 1 2.6 5.2 0.00 0.00 0.00 69 1017.1
20260901190803 78 1 2.6 4.3 0.00 0.00 0.00 67 1017.0
20260901185903 78 1 3.5 4.3 0.00 0.00 0.00 67 1016.9
20260901185003 78 1 2.6 4.3 0.00 0.00 0.00 67 1016.9
20260901184103 78 1 1.7 5.2 0.00 0.00 0.00 67 1016.7
20260901182305 79 1 1.7 4.3 0.00 0.00 0.00 67 1017.0
20260901181403 79 1 2.6 4.3 0.00 0.00 0.00 67 1017.1
20260901180503 79 1 2.6 5.2 0.00 0.00 0.00 66 1017.0
20260901175603 80 1 1.7 5.2 0.00 0.00 0.00 65 1017.0
20260901174703 80 1 2.6 4.3 0.00 0.00 0.00 64 1017.1
20260901173803 80 1 1.7 7.0 0.00 0.00 0.00 64 1017.2
20260901172903 80 1 1.7 4.3 0.00 0.00 0.00 64 1017.4
20260901172003 80 1 2.6 4.3 0.00 0.00 0.00 63 1017.4
20260901171103 80 1 3.5 7.0 0.00 0.00 0.00 64 1017.2
20260901170203 80 1 2.6 7.0 0.00 0.00 0.00 63 1017.3
20260901165306 80 1 3.5 7.8 0.00 0.00 0.00 62 1017.3
20260901164403 80 1 3.5 8.7 0.00 0.00 0.00 61 1017.3
20260901163503 81 1 2.6 8.7 0.00 0.00 0.00 60 1017.6
20260901162603 81 1 2.6 7.0 0.00 0.00 0.00 60 1017.6
20260901161703 80 1 3.5 7.8 0.00 0.00 0.00 60 1017.5
20260901160803 80 1 3.5 8.7 0.00 0.00 0.00 60 1017.4
20260901155903 80 1 3.5 7.8 0.00 0.00 0.00 59 1017.5
20260901155003 81 1 3.5 8.7 0.00 0.00 0.00 58 1017.6
20260901154103 81 1 3.5 8.7 0.00 0.00 0.00 56 1017.4
20260901153202 81 1 3.5 7.8 0.00 0.00 0.00 57 1017.6
20260901152305 81 1 3.5 7.0 0.00 0.00 0.00 56 1017.5
20260901151402 81 1 3.5 8.7 0.00 0.00 0.00 56 1017.5
20260901150502 81 1 3.5 8.7 0.00 0.00 0.00 55 1017.6
20260901145602 80 1 3.5 7.8 0.00 0.00 0.00 55 1017.7
20260901144702 80 1 3.5 7.8 0.00 0.00 0.00 54 1017.7
20260901143803 80 1 3.5 7.8 0.00 0.00 0.00 54 1017.7
20260901142902 81 1 3.5 9.6 0.00 0.00 0.00 53 1017.8
20260901141102 81 1 4.3 10.4 0.00 0.00 0.00 50 1017.9
20260901140202 82 1 4.3 10.4 0.00 0.00 0.00 50 1017.8
20260901135305 82 1 4.3 8.7 0.00 0.00 0.00 49 1018.0
20260901134402 82 1 5.2 12.2 0.00 0.00 0.00 50 1018.2
20260901133502 82 1 4.3 12.2 0.00 0.00 0.00 48 1018.2
20260901132602 83 1 5.2 10.4 0.00 0.00 0.00 48 1018.2
20260901131702 83 1 5.2 13.0 0.00 0.00 0.00 47 1018.4
20260901130802 83 1 6.1 11.3 0.00 0.00 0.00 47 1018.4
20260901125902 83 1 5.2 11.3 0.00 0.00 0.00 46 1018.5
20260901125002 83 1 6.1 12.2 0.00 0.00 0.00 46 1018.6
20260901124102 83 1 6.1 13.9 0.00 0.00 0.00 45 1018.7
20260901123202 83 1 6.1 13.9 0.00 0.00 0.00 45 1018.7
20260901122305 84 1 6.1 13.0 0.00 0.00 0.00 45 1018.6
20260901121402 85 1 6.1 12.2 0.00 0.00 0.00 44 1018.6
20260901115602 85 1 3.5 8.7 0.00 0.00 0.00 45 1018.5
20260901114702 85 1 4.3 8.7 0.00 0.00 0.00 45 1018.6
20260901113802 85 1 5.2 9.6 0.00 0.00 0.00 45 1018.7
20260901112902 85 1 3.5 12.2 0.00 0.00 0.00 45 1018.6
20260901112002 85 1 3.5 7.8 0.00 0.00 0.00 47 1018.7
20260901111102 85 1 3.5 9.6 0.00 0.00 0.00 47 1018.7